Weather History for Salt Point, LA

Change the Weather History Date:

Tuesday, November 6, 2012

  Actual Average Record
Temperature  
Mean Temperature 62 °F -  
Max Temperature 68 °F 71 °F 82 °F (2013)
Min Temperature 54 °F 55 °F 42 °F (2010)
Degree Days  
Heating Degree Days 4    
Growing Degree Days 12 (Base 50)    
Moisture  
Dew Point 54 °F    
Average Humidity 81    
Maximum Humidity 97    
Minimum Humidity 52    
Precipitation  
Precipitation 0.01 in - - ()
Sea Level Pressure  
Sea Level Pressure 30.03 in    
Wind  
Wind Speed 2 mph (North)    
Max Wind Speed 8 mph    
Max Gust Speed -    
Averages and records for this station are not official NWS values.
T = Trace of Precipitation, MM = Missing Value Source: NWS Daily Summary

Daily Weather History Graph

Daily Weather History Graph

Search for Another Location

Airport:

Trip Planner

Search our weather history database for the weather conditions in past years. The results will help you decide how hot, cold, wet, or windy it might be!

Date:

Astronomy

Nov. 06, 2012 Rise Set
Actual Time 6:23 AM CST 5:15 PM CST
Civil Twilight 5:58 AM CST 5:40 PM CST
Nautical Twilight 5:30 AM CST 6:08 PM CST
Astronomical Twilight 5:02 AM CST 6:36 PM CST
Moon 11:49 PM CST (11/6) 12:19 PM CST (11/6)
Length of Visible Light 11h 41m
Length of Day
10h 51m
Waning Gibbous, 53% of the Moon is Illuminated
Nov 6
Waning Gibbous
Nov 6
Last Quarter
Nov 13
New
Nov 20
First Quarter
Nov 28
Full

Hourly Weather History & Observations

Time (CST) Temp. Dew Point Humidity Pressure Visibility Wind Dir Wind Speed Gust Speed Precip Events Conditions
12:53 AM 63.0 °F 60.1 °F 90% 29.96 in - Calm Calm - N/A   Unknown
1:53 AM 62.1 °F 59.0 °F 90% 29.99 in - North 3.5 mph - N/A   Unknown
2:53 AM 61.0 °F 57.9 °F 90% 29.99 in - North 3.5 mph - N/A   Unknown
3:53 AM 59.0 °F 55.9 °F 90% 30.00 in - Calm Calm - N/A   Unknown
4:53 AM 57.9 °F 55.9 °F 93% 30.00 in - Calm Calm - 0.01 in   Unknown
5:53 AM 57.0 °F 55.0 °F 93% 30.01 in - Calm Calm - N/A   Unknown
6:53 AM 55.9 °F 55.0 °F 97% 30.02 in - Calm Calm - N/A   Unknown
7:53 AM 59.0 °F 57.0 °F 93% 30.04 in - North 5.8 mph - N/A   Unknown
8:53 AM 57.9 °F 55.9 °F 93% 30.06 in - North 6.9 mph - N/A   Unknown
9:53 AM 57.9 °F 55.9 °F 93% 30.08 in - North 5.8 mph - N/A   Unknown
10:53 AM 59.0 °F 55.0 °F 87% 30.07 in - Variable 4.6 mph - N/A   Unknown
11:53 AM 61.0 °F 54.0 °F 78% 30.05 in - NNW 8.1 mph - N/A   Unknown
12:53 PM 64.0 °F 54.0 °F 70% 30.01 in - North 8.1 mph - N/A   Unknown
1:53 PM 68.0 °F 53.1 °F 59% 30.00 in - Variable 4.6 mph - N/A   Unknown
2:53 PM 68.0 °F 52.0 °F 56% 30.00 in - Variable 4.6 mph - N/A   Unknown
3:53 PM 68.0 °F 50.0 °F 52% 30.00 in - Variable 5.8 mph - N/A   Unknown
4:53 PM 64.9 °F 53.1 °F 65% 30.01 in - Calm Calm - N/A   Unknown
5:53 PM 62.1 °F 51.1 °F 67% 30.03 in - Calm Calm - N/A   Unknown
6:53 PM 60.1 °F 51.1 °F 72% 30.05 in - Calm Calm - N/A   Unknown
7:53 PM 57.9 °F 51.1 °F 78% 30.07 in - Calm Calm - N/A   Unknown
8:53 PM 57.0 °F 51.1 °F 81% 30.09 in - Calm Calm - N/A   Unknown
9:53 PM 55.0 °F 51.1 °F 86% 30.10 in - North 3.5 mph - N/A   Unknown
10:53 PM 55.0 °F 50.0 °F 83% 30.09 in - Calm Calm - N/A   Unknown
11:53 PM 54.0 °F 50.0 °F 86% 30.09 in - Calm Calm - N/A   Unknown